Regional Weather Roundup
Issued by NWS Burlington, VT

Home | Current Version | Previous Version | Text Only | Print | Product List | Glossary On
Versions: 1 2 3 4 5 6 7 8 9 10 11 12 13 14 15 16 17 18 19 20 21 22 23 24 25 26 27 28 29 30 31 32 33 34 35 36 37 38 39 40 41 42 43 44 45 46 47 48 49 50
000
ASUS41 KBTV 270210
RWRBTV
VERMONT REGIONAL WEATHER ROUNDUP
NATIONAL WEATHER SERVICE BURLINGTON VT
1000 PM EDT TUE MAY 26 2015

NOTE: "FAIR" INDICATES FEW OR NO CLOUDS BELOW 12,000 FEET WITH NO
SIGNIFICANT WEATHER AND/OR OBSTRUCTIONS TO VISIBILITY.

* THESE REPORTS ARE NOT UNDER NWS QUALITY CONTROL AND/OR DO NOT
  REPORT WEATHER SUCH AS PRECIPITATION AND FOG.

VTZ001>019-270300-
_____VERMONT_____


CITY           SKY/WX    TMP DP  RH WIND       PRES   REMARKS
BURLINGTON     PTCLDY    70  59  68 SE3       30.02R
MONTPELIER     MOCLDY    74  60  61 SW6       30.11
MORRISVILLE    PTCLDY    68  60  75 S6        30.07R
ST. JOHNSBURY*   N/A     70  62  76 MISG      30.04R
LYNDONVILLE*     N/A     67  55  65 CALM      30.09R
MIDDLEBURY*      N/A     77  62  58 S6        30.06R
RUTLAND*       CLOUDY    73  59  60 SE3       30.10R
SPRINGFIELD    MOCLDY    70  62  76 W3        30.09R
HIGHGATE*        N/A     67  61  81 CALM      30.01R
NEWPORT*         N/A     60  56  86 S3        30.07R
BENNINGTON     PTCLDY    76  63  64 S8        30.11R

_____LAKE CHAMPLAIN_____


CITY           SKY/WX    TMP DP  RH WIND       PRES   REMARKS

$$

NYZ007-026>031-035-052-083-270300-
_____NORTHERN NEW YORK_____


CITY           SKY/WX    TMP DP  RH WIND       PRES   REMARKS
PLATTSBURGH    PTCLDY    74  59  59 SW3       30.00R
SARANAC LAKE   PTCLDY    65  60  84 CALM      30.09
MASSENA        CLEAR     70  63  78 SW5       30.00S
OGDENSBURG*    PTCLDY    70  64  83 CALM      30.00S
POTSDAM*       CLEAR     70  66  88 S3        30.02R
WATERTOWN      CLOUDY    69  67  93 CALM      30.01R
FT DRUM        LGT RAIN  75  66  73 S8        30.03R
ALBANY         MOCLDY    77  65  66 S6        30.08R
GLENS FALLS    PTCLDY    71  64  78 S5        30.07R

$$
NHZ002-005-011-270300-
_____NEW HAMPSHIRE_____


CITY           SKY/WX    TMP DP  RH WIND       PRES   REMARKS
LEBANON        MOCLDY    72  62  71 S7        30.07R
KEENE          MOCLDY   N/A N/A N/A SW10      30.12R
MT WASHINGTON  CLOUDY    54  50  87 W24         N/A
PLYMOUTH         N/A     69  64  86 CALM      30.07R
WHITEFIELD     PTCLDY    66  59  78 CALM      30.07R

$$

_____REGIONAL QUEBEC LOCATIONS_____


CITY           SKY/WX    TMP DP  RH WIND       PRES   REMARKS
MONTREAL       PTCLDY    73  61  64 S8        29.99R
QUEBEC CITY    MOCLDY    72  64  78 W8        29.95R
SHERBROOKE     CLEAR     68  59  73 SW5       30.03R

_____REGIONAL ONTARIO LOCATIONS_____


CITY           SKY/WX    TMP DP  RH WIND       PRES   REMARKS
OTTAWA         PTCLDY    72  64  78 S7        29.98R

______KEY______
VSB  - VISIBILITY IN MILES
WCI  - WIND CHILL INDEX
HX   - HEAT INDEX
$$
NNNN


USA.gov is the U.S. government's official web portal to all federal, state and local government web resources and services.